Hourly Weather Roundup
Issued by NWS Central Illinois

Home | Current Version | Previous Version | Text Only | Print | Product List | Glossary On
Versions: 1 2 3 4 5 6 7 8 9 10 11 12 13 14 15 16 17 18 19 20 21 22 23 24 25 26 27 28 29 30 31 32 33 34 35 36 37 38 39 40 41 42 43 44 45 46 47 48 49 50
000
NZUS43 KILX 260510
HWRILX

AREA WEATHER ROUNDUP
NATIONAL WEATHER SERVICE, LINCOLN IL
1200 AM CDT SAT JUL 26 2014


CITY           SKY/WX    TMP DP  RH WIND       PRES   REMARKS
BLOOMINGTON    MOCLDY    66  60  81 S13       29.94F
CHAMPAIGN      CLOUDY    68  62  81 SE9       29.96F
DECATUR        CLOUDY    69  62  78 S9        29.94F
FLORA          CLEAR     62  61  97 SE6       29.99F
GALESBURG      CLOUDY    68  63  84 SE8       29.89S
JACKSONVILLE   PTCLDY    69  63  80 SE12      29.90S
LACON          CLOUDY    68  59  74 SE9       29.90F
LAWRENCEVILLE  CLEAR     63  61  93 E5        30.01R
LITCHFIELD     CLEAR     65  62  90 SE12      29.93S
$$


CITY           SKY/WX    TMP DP  RH WIND       PRES   REMARKS
LINCOLN        CLOUDY    69  61  76 S10       29.90S
MACOMB         PTCLDY    67  63  87 SE8       29.90S
MATTOON        CLOUDY    67  61  81 S8        29.96F
MT CARMEL AP   CLEAR     63  61  94 CALM      30.01R
OLNEY-NOBLE AP CLEAR     61  59  94 CALM      30.00S
PARIS          CLOUDY    65  63  91 SE3       29.99S
PEORIA         CLOUDY    70  61  73 SE12      29.91S
PONTIAC        MOCLDY    70  63  78 S8        29.93S
RANTOUL        MOCLDY    68  61  78 S7        29.96S
ROBINSON       CLOUDY    62  62  97 S5        30.00F
SPRINGFIELD    PTCLDY    70  62  76 SE9       29.91F
TAYLORVILLE    CLOUDY    66  61  82 SE13      29.93S
$$

...REGIONAL REPORTS...


CITY           SKY/WX    TMP DP  RH WIND       PRES   REMARKS
CHICAGO O`HARE MOCLDY    70  57  63 SW8       29.92S
KANKAKEE       CLOUDY    68  61  77 S7        29.95S
MOLINE         CLOUDY    69  62  78 SE9       29.87F
MOUNT VERNON   CLEAR     64  57  77 E3        29.99S
PITTSFIELD     CLEAR     69  64  82 SE6       29.88S
QUINCY         PTCLDY    71  64  78 SE8       29.85S
ROCKFORD       CLOUDY    68  60  75 S6        29.93S
$$


CITY           SKY/WX    TMP DP  RH WIND       PRES   REMARKS
BURLINGTON     CLOUDY    71  61  70 SE10      29.85S
CEDAR RAPIDS   CLOUDY    70  63  78 SE8       29.84S
DES MOINES     PTCLDY    75  70  84 E7        29.79S
KIRKSVILLE     CLEAR     72  69  90 S7        29.83F
OTTUMWA        CLEAR     70  67  90 SE7       29.81S
ST LOUIS       CLEAR     76  65  68 S9        29.91F
$$


CITY           SKY/WX    TMP DP  RH WIND       PRES   REMARKS
TERRE HAUTE    CLOUDY    66  61  84 S6        29.99S
EVANSVILLE     CLEAR     65  60  84 CALM      30.01R
INDIANAPOLIS   CLOUDY    69  60  73 S6        29.99F
LAFAYETTE      CLOUDY    68  59  73 S6        29.96F
MADISON        PTCLDY    67  61  81 S9        29.89S
MILWAUKEE      PTCLDY    66  59  78 S6        29.90F
$$




USA.gov is the U.S. government's official web portal to all federal, state and local government web resources and services.